[[{"header":{"parameterUnit":"m.s-1","parameterCategory":1,"la1":30.2991,"la2":30.254,"lo1":-89.0895,"lo2":-89.0444,"dy":0.0017,"dx":0.0017,"nx":28,"ny":28,"refTime":"2023-07-24T21:00:00:Z","depth":0,"parameterNumber":2,"parameterNumberName":"U-component_of_WINDS"},"data":[0,0,0,0,0,0,0,0,0,0,0,0,0,0,0,0,0,0,0,0,0,0,0,0,0,0,0,0,0,0,0,0,0,0,0,0,0,0,0,0,0,0,0,0,0,0,0,0,0,0,0,0,0,0,0,0,0,0,1.3044,1.3045,0,1.3182,1.3184,1.3185,1.3235,1.3234,1.3234,1.3233,1.3375,1.3379,1.3383,0,0,0,0,0,0,0,0,0,0,0,0,0,1.282,1.2824,1.3044,1.3045,1.3047,1.3182,1.3184,1.3186,1.3235,1.3234,1.3234,1.3233,1.3373,1.3378,1.3383,0,0,0,0,0,0,0,0,0,0,0,0,0,1.2934,1.2825,1.3043,1.3088,1.3093,1.3182,1.3184,1.3186,1.3235,1.3234,1.3234,1.3233,1.3372,1.3378,1.3384,1.3438,0,0,1.3403,1.3406,0,0,0,0,0,0,0,0,1.2927,1.2942,1.308,1.3085,1.3091,1.3191,1.3157,1.3271,1.3235,1.3181,1.3233,1.3232,1.3314,1.3325,1.3353,1.3445,1.3451,1.3404,1.3408,1.3411,1.3412,0,0,0,0,0,0,0,1.2919,1.2936,1.3099,1.3082,1.3089,1.3101,1.3116,1.3179,1.325,1.3186,1.319,1.3206,1.3317,1.3346,1.3356,1.3453,1.3404,1.3409,1.3413,1.3416,1.3596,1.3596,0,0,0,0,0,0,1.2904,1.2929,1.3094,1.3103,1.3006,1.3105,1.3122,1.3159,1.325,1.3263,1.3206,1.3207,1.3336,1.3349,1.3361,1.343,1.3411,1.3417,1.342,1.3595,1.3596,1.3597,0,0,0,0,0,0,1.2899,1.2919,1.3089,1.3017,1.304,1.311,1.3151,1.3163,1.3192,1.3265,1.3278,1.3223,1.3336,1.3353,1.3419,1.3436,1.3419,1.3425,1.3593,1.3595,1.3596,1.3568,0,0,0,0,0,0,1.2893,1.2916,1.2938,1.3017,1.3043,1.3143,1.3152,1.3166,1.3203,1.3206,1.3284,1.3296,1.3337,1.3409,1.3425,1.3444,1.343,1.3592,1.3594,1.3596,1.3568,1.3568,1.3569,0,0,0,0,0,1.2885,1.2924,1.2939,1.2958,1.3072,1.3144,1.3159,1.3205,1.3204,1.3226,1.3273,1.3294,1.3431,1.3415,1.3434,1.3455,1.3591,1.3594,1.3596,1.3567,1.3568,1.3569,0,0,0,0,0,0,1.2845,1.2936,1.2953,1.3019,1.3074,1.3153,1.3182,1.3204,1.326,1.326,1.3314,1.3332,1.3393,1.3431,1.3411,1.3512,1.3513,1.3519,1.3485,1.3486,1.3486,1.3476,1.3435,0,0,0,0,0,1.2844,1.2896,1.2972,1.3024,1.305,1.3111,1.3144,1.3175,1.3233,1.3256,1.3308,1.3364,1.3419,1.3455,1.351,1.3573,1.3591,1.3597,1.3598,1.3598,1.3602,1.3638,1.3641,1.3604,1.3604,1.3604,0,0,1.2843,1.2899,1.2928,1.3017,1.3063,1.3115,1.313,1.3184,1.3223,1.3265,1.333,1.337,1.3435,1.35,1.3531,1.3533,1.3616,1.3601,1.36,1.3605,1.364,1.3644,1.3647,1.3605,1.3605,1.3605,0,0,1.2866,1.2914,1.2962,1.3008,1.3077,1.3117,1.3128,1.3204,1.3232,1.3298,1.333,1.3377,1.3472,1.3517,1.3552,1.3593,1.3614,1.3609,1.3612,1.3646,1.3649,1.3651,1.3665,1.3669,1.3614,1.3613,1.3613,0,1.2856,1.2936,1.2984,1.3036,1.3074,1.3114,1.3163,1.3205,1.3288,1.3313,1.3315,1.3434,1.3481,1.3556,1.3566,1.3594,1.3608,1.36,1.3644,1.3648,1.3651,1.3665,1.367,1.3612,1.3612,1.3613,1.3613,0,1.2919,1.2973,1.3004,1.3083,1.3125,1.3175,1.323,1.3266,1.3293,1.3333,1.3399,1.3457,1.3525,1.3545,1.3572,1.3624,1.3623,1.3634,1.3636,1.3653,1.3666,1.3672,1.3611,1.3611,1.3611,1.3612,0,0,1.2921,1.3026,1.3037,1.3073,1.3152,1.3195,1.3247,1.3313,1.3342,1.3398,1.3443,1.3522,1.3532,1.3572,1.3604,1.3634,1.3661,1.3641,1.3644,1.3642,1.3721,1.3712,1.3718,1.3676,1.3677,1.3678,1.3716,0,1.2954,1.3049,1.3094,1.3168,1.3219,1.3257,1.3302,1.3355,1.3394,1.3442,1.3485,1.354,1.355,1.3574,1.3605,1.3651,1.3678,1.3649,1.3717,1.3719,1.3699,1.3725,1.3716,1.3748,1.3721,1.3722,1.3723,0,1.3006,1.3062,1.3141,1.3214,1.3237,1.3276,1.334,1.3386,1.3447,1.3473,1.3517,1.3548,1.3603,1.3602,1.3678,1.3658,1.3688,1.3715,1.3717,1.3725,1.3721,1.3732,1.376,1.3764,1.3732,1.3731,1.3731,0,1.2998,1.3094,1.3153,1.3183,1.327,1.3296,1.3334,1.3394,1.343,1.3486,1.351,1.3571,1.3605,1.3651,1.3698,1.3692,1.377,1.3772,1.3792,1.3791,1.3806,1.3804,1.3838,1.3827,1.3827,1.3827,1.3827,0,1.3031,1.3077,1.3151,1.3188,1.3241,1.3292,1.3343,1.3383,1.3436,1.3481,1.3518,1.3559,1.3619,1.3667,1.3704,1.3761,1.3776,1.3799,1.3808,1.3795,1.3792,1.3815,1.3814,1.3828,1.3828,1.3827,1.3827,0,1.3031,1.3083,1.315,1.3226,1.3246,1.3282,1.3347,1.3384,1.3424,1.348,1.3496,1.3559,1.3618,1.367,1.3747,1.3772,1.3831,1.3842,1.381,1.3815,1.3832,1.3829,1.3881,1.389,1.3873,1.3873,1.3873,0,1.3048,1.3085,1.3165,1.3197,1.3234,1.3286,1.3324,1.3375,1.3413,1.3484,1.3512,1.3574,1.3626,1.3718,1.377,1.383,1.3843,1.3857,1.3852,1.3838,1.3842,1.3839,1.3843,1.3856,1.3856,1.3856,1.3856,0,1.3072,1.3095,1.3148,1.321,1.3253,1.3304,1.3356,1.3381,1.3442,1.3482,1.3543,1.3583,1.3662,1.3722,1.3788,1.3826,1.3851,1.3857,1.3865,1.3852,1.3832,1.3842,1.3809,1.3856,1.3856,1.3856,1.3856,1.3856,1.308,1.3115,1.3176,1.3234,1.3278,1.3326,1.3364,1.3409,1.3461,1.3529,1.3556,1.3618,1.3677,1.3768,1.3805,1.3854,1.3858,1.387,1.3872,1.3874,1.3872,1.3824,1.3866,1.3866,1.3867,1.3867,1.3867,0,1.3106,1.3147,1.3199,1.3271,1.3316,1.3336,1.3395,1.3431,1.3484,1.3538,1.3588,1.3657,1.3716,1.3773,1.3835,1.3863,1.3876,1.3877,1.3875,1.3883,1.3865,1.3852,1.3865,1.3865,1.3865,1.3865,1.3865,1.3865,1.3124,1.3183,1.3214,1.3295,1.3336,1.3397,1.3428,1.3472,1.3515,1.3591,1.364,1.3677,1.3732,1.3797,1.3852,1.3867,1.3888,1.3886,1.3904,1.3885,1.3885,1.3884,1.3872,1.389,1.389,1.3919,1.3919,1.3919]},{"header":{"parameterUnit":"m.s-1","parameterCategory":1,"la1":30.2991,"la2":30.254,"lo1":-89.0895,"lo2":-89.0444,"dy":0.0017,"dx":0.0017,"nx":28,"ny":28,"refTime":"2023-07-24T21:00:00:Z","depth":0,"parameterNumber":3,"parameterNumberName":"V-component_of_WINDS"},"data":[0,0,0,0,0,0,0,0,0,0,0,0,0,0,0,0,0,0,0,0,0,0,0,0,0,0,0,0,0,0,0,0,0,0,0,0,0,0,0,0,0,0,0,0,0,0,0,0,0,0,0,0,0,0,0,0,0,0,3.4661,3.466,0,3.458,3.4579,3.4578,3.4541,3.4541,3.4541,3.4541,3.445,3.4448,3.4446,0,0,0,0,0,0,0,0,0,0,0,0,0,3.4775,3.4773,3.4661,3.466,3.4659,3.458,3.4579,3.4578,3.4541,3.4541,3.4541,3.4541,3.4451,3.4448,3.4445,0,0,0,0,0,0,0,0,0,0,0,0,0,3.4713,3.4773,3.4661,3.4631,3.4627,3.458,3.4579,3.4577,3.4541,3.4541,3.4541,3.4541,3.4452,3.4449,3.4445,3.4419,0,0,3.4433,3.4432,0,0,0,0,0,0,0,0,3.4717,3.4709,3.4636,3.4633,3.4629,3.4571,3.4586,3.4524,3.4541,3.4573,3.4541,3.4541,3.449,3.4483,3.4467,3.4415,3.4411,3.4433,3.4431,3.4429,3.4428,0,0,0,0,0,0,0,3.4721,3.4712,3.4628,3.4635,3.4631,3.4619,3.461,3.4574,3.4531,3.4571,3.4568,3.4559,3.4488,3.4471,3.4465,3.4409,3.4433,3.443,3.4428,3.4426,3.433,3.433,0,0,0,0,0,0,3.4731,3.4716,3.4631,3.4626,3.4674,3.4617,3.4607,3.4589,3.4532,3.4523,3.4559,3.4558,3.4477,3.4469,3.4461,3.4427,3.4429,3.4426,3.4424,3.4331,3.433,3.433,0,0,0,0,0,0,3.4734,3.4724,3.4634,3.467,3.4658,3.4615,3.4595,3.4587,3.4571,3.4523,3.4515,3.455,3.4477,3.4467,3.443,3.4423,3.4424,3.4421,3.4331,3.4331,3.433,3.4358,0,0,0,0,0,0,3.4737,3.4725,3.4717,3.467,3.4656,3.4607,3.4594,3.4586,3.4565,3.4563,3.4513,3.4505,3.4476,3.4436,3.4426,3.4418,3.4418,3.4331,3.4331,3.433,3.4358,3.4359,3.436,0,0,0,0,0,3.4742,3.4726,3.4716,3.4706,3.4645,3.4606,3.4598,3.4568,3.4565,3.4555,3.4524,3.4506,3.4426,3.4433,3.4421,3.4412,3.4332,3.4331,3.433,3.4357,3.4359,3.436,0,0,0,0,0,0,3.477,3.4719,3.4708,3.4678,3.4647,3.46,3.4587,3.4571,3.4538,3.4537,3.4499,3.4488,3.4454,3.4429,3.4438,3.4383,3.4377,3.4374,3.4401,3.4402,3.4403,3.4409,3.4415,0,0,0,0,0,3.4773,3.4749,3.4705,3.4682,3.4667,3.463,3.4612,3.4592,3.4557,3.4543,3.451,3.4475,3.4442,3.442,3.4387,3.4354,3.4342,3.4342,3.4343,3.4344,3.4342,3.4321,3.4321,3.4328,3.4328,3.4328,0,0,3.4778,3.4748,3.4734,3.4687,3.4661,3.4634,3.4619,3.4591,3.457,3.4538,3.4502,3.4477,3.4435,3.44,3.4383,3.4378,3.4337,3.4343,3.4344,3.4341,3.4321,3.432,3.432,3.4327,3.4328,3.4328,0,0,3.4774,3.475,3.4728,3.4703,3.4664,3.4639,3.4634,3.459,3.4573,3.4537,3.4512,3.4485,3.4429,3.44,3.4378,3.4364,3.4346,3.4354,3.4359,3.434,3.434,3.4339,3.4333,3.4332,3.4352,3.4352,3.4352,0,3.4785,3.4746,3.4718,3.4692,3.4671,3.4644,3.4621,3.4597,3.4548,3.4533,3.4529,3.4459,3.4429,3.4386,3.4383,3.4367,3.4358,3.436,3.4342,3.4341,3.434,3.4334,3.4332,3.4354,3.4353,3.4353,3.4353,0,3.4761,3.4734,3.4721,3.4678,3.4656,3.4631,3.4597,3.4577,3.4559,3.4534,3.4497,3.446,3.4419,3.4408,3.4389,3.4362,3.4361,3.435,3.4343,3.4341,3.4335,3.4333,3.4355,3.4355,3.4355,3.4354,0,0,3.4772,3.4715,3.4711,3.4691,3.4647,3.4624,3.4597,3.456,3.4543,3.4511,3.4486,3.444,3.443,3.4405,3.4382,3.4366,3.4356,3.4357,3.4355,3.4357,3.4324,3.4332,3.433,3.4344,3.4343,3.4343,3.4327,0,3.4762,3.4716,3.469,3.4654,3.4628,3.4602,3.4578,3.4547,3.4523,3.4495,3.4467,3.4435,3.4425,3.441,3.4392,3.4361,3.4349,3.4362,3.4318,3.4317,3.433,3.4327,3.4335,3.4322,3.4324,3.4324,3.4324,0,3.4744,3.4715,3.4677,3.4636,3.4624,3.4604,3.4567,3.4542,3.4506,3.4489,3.4462,3.444,3.4408,3.4404,3.4359,3.4369,3.4349,3.4331,3.433,3.4324,3.432,3.432,3.4317,3.4315,3.432,3.432,3.432,0,3.4755,3.4706,3.4677,3.4661,3.4612,3.4599,3.4577,3.4541,3.4521,3.4488,3.4473,3.4436,3.4416,3.4386,3.4354,3.4354,3.4312,3.4305,3.4295,3.4296,3.4287,3.4288,3.428,3.4276,3.4276,3.4276,3.4276,0,3.4746,3.4724,3.4682,3.4664,3.4638,3.4607,3.4581,3.4557,3.4525,3.45,3.4474,3.4451,3.441,3.4381,3.4355,3.4321,3.4312,3.4296,3.4289,3.4298,3.43,3.4284,3.4284,3.4275,3.4275,3.4275,3.4275,0,3.4754,3.4725,3.4692,3.465,3.4639,3.4621,3.4583,3.4563,3.4539,3.4507,3.4498,3.4458,3.4422,3.4388,3.4339,3.4321,3.4288,3.4279,3.4301,3.4297,3.4289,3.429,3.427,3.4266,3.4265,3.4266,3.4266,0,3.475,3.4733,3.4689,3.4672,3.4652,3.4625,3.4604,3.4573,3.4552,3.4509,3.4494,3.4458,3.4426,3.437,3.4335,3.4297,3.4287,3.4283,3.4281,3.4291,3.4286,3.4288,3.4285,3.4284,3.4284,3.4284,3.4284,0,3.4746,3.4733,3.4705,3.4673,3.465,3.4622,3.4593,3.458,3.4542,3.452,3.4485,3.4461,3.4413,3.4376,3.4334,3.4309,3.4289,3.4285,3.4281,3.4289,3.4303,3.4295,3.4303,3.4285,3.4285,3.4285,3.4285,3.4285,3.4747,3.473,3.4697,3.4668,3.4643,3.4617,3.4597,3.457,3.4542,3.4502,3.4484,3.4449,3.4411,3.4354,3.433,3.4299,3.4294,3.4288,3.4286,3.4285,3.4287,3.4308,3.4292,3.4292,3.4292,3.4291,3.4291,0,3.4741,3.4719,3.4692,3.4654,3.463,3.4617,3.4584,3.4564,3.4534,3.4503,3.4473,3.4433,3.4397,3.4359,3.4321,3.4304,3.4294,3.4295,3.4295,3.4289,3.4294,3.4302,3.4304,3.4304,3.4304,3.4304,3.4304,3.4304,3.4735,3.4706,3.4689,3.4647,3.4624,3.4592,3.4574,3.4549,3.4524,3.448,3.4452,3.4429,3.4394,3.4353,3.4319,3.4308,3.4295,3.4298,3.4285,3.429,3.4289,3.4288,3.4295,3.4296,3.4296,3.4283,3.4283,3.4283]}]]